N6OIM Weather Reports


Display with metric or nautical units.
time (UTC)temp
F
wind
direction
speed
MPH
gust
MPH
rain 1hr
in
rain 24hr
in
rain mn
in
humidity
%
barometer
mb
20190117133331 55 146 2.0 6.0 0.00 2.10 0.00 86 1011.2
20190117130422 55 141 2.0 6.0 0.00 2.12 0.00 86 1011.4
20190117123402 55 146 1.0 5.0 0.00 2.12 0.00 86 1011.1
20190117120349 55 130 2.0 7.0 0.00 2.17 0.00 87 1011.0
20190117103404 56 114 0.0 7.0 0.00 2.19 0.00 86 1010.0
20190117100417 56 134 4.0 10.0 0.01 2.19 2.18 87 1009.6
20190117093358 56 165 3.0 9.0 0.01 2.19 2.18 87 1009.2
20190117090346 57 205 4.0 13.0 0.00 2.18 2.17 85 1008.8
20190117083338 57 200 2.0 18.0 0.00 2.18 2.17 84 1008.2
20190117080345 57 125 4.0 16.0 0.00 2.18 2.17 86 1007.4
20190117063401 57 140 12.0 19.0 0.52 2.12 2.07 90 1006.5
20190117060449 56 284 6.0 6.0 0.35 1.77 1.70 90 1007.7
20190117053419 56 105 6.0 11.0 0.39 1.63 1.56 89 1007.6
20190117050402 56 175 8.0 13.0 0.31 1.44 1.35 88 1007.5
20190117043413 56 110 3.0 19.0 0.17 1.26 1.17 86 1007.1
20190117040431 56 125 9.0 17.0 0.10 1.22 1.04 86 1006.8
20190117033340 55 126 8.0 23.0 0.12 1.18 1.00 86 1006.8
20190117030400 55 150 13.0 24.0 0.09 1.22 0.94 84 1007.1
20190117023422 55 196 9.0 15.0 0.03 1.16 0.88 85 1007.2
20190117020408 55 175 12.0 20.0 0.08 1.21 0.85 86 1007.6
20190117013419 54 177 16.0 21.0 0.15 1.21 0.85 87 1008.2
20190117010414 54 15 11.0 19.0 0.18 1.23 0.77 85 1008.7
20190117003333 55 103 7.0 15.0 0.20 1.16 0.70 85 1009.0
20190117000332 55 178 8.0 20.0 0.19 1.12 0.59 84 1009.9
20190116233413 55 188 3.0 7.0 0.16 1.03 0.50 86 1010.1
20190116230333 55 170 4.0 7.0 0.16 1.00 0.40 85 1009.7
20190116220334 56 80 5.0 10.0 0.11 0.92 0.24 81 1009.3
20190116213357 57 121 4.0 5.0 0.07 0.88 0.20 80 1009.8
20190116210406 58 199 1.0 5.0 0.01 0.86 0.13 74 1011.0
20190116203422 60 119 2.0 6.0 0.01 0.86 0.13 70 1010.9
20190116200413 60 141 7.0 13.0 0.00 0.94 0.12 67 1011.5
20190116193418 60 112 3.0 5.0 0.00 0.94 0.12 70 1011.9
20190116190410 59 171 4.0 9.0 0.01 0.99 0.12 73 1013.2
20190116180422 59 159 4.0 7.0 0.00 1.02 0.11 74 1013.9
20190116173353 58 187 5.0 10.0 0.00 1.02 0.11 75 1013.8
20190116170416 58 162 2.0 11.0 0.00 1.05 0.11 76 1013.5
20190116163357 57 67 7.0 16.0 0.00 1.05 0.11 79 1013.0
20190116160352 56 132 4.0 6.0 0.00 1.05 0.11 82 1013.1
20190116153350 56 138 4.0 7.0 0.01 1.05 0.11 84 1013.1
20190116150412 55 98 5.0 10.0 0.01 1.06 0.11 88 1012.9
20190116143342 54 68 5.0 7.0 0.01 1.05 0.10 89 1013.3
20190116140436 54 142 4.0 9.0 0.02 1.05 0.10 90 1013.3